Regional Weather Roundup
Issued by NWS

Home | Current Version | Previous Version | Text Only | Print | Product List | Glossary Off
Versions: 1 2 3 4 5 6 7 8 9 10 11 12 13 14 15 16 17 18 19 20 21 22 23 24 25 26 27

000
ASUS45 KBOI 251310
RWRID

IDAHO REGIONAL WEATHER ROUNDUP
NATIONAL WEATHER SERVICE BOISE ID
700 AM MDT MON JUL 25 2016

NOTE: "FAIR" INDICATES FEW OR NO CLOUDS BELOW 12000 FEET
WITH NO SIGNIFICANT WEATHER AND/OR OBSTRUCTIONS TO VISIBILITY

IDZ012-014-251400-
SOUTHWEST IDAHO


CITY           SKY/WX    TMP DP  RH WIND       PRES   REMARKS
BOISE          CLEAR     64  37  36 SE3       30.02R
CALDWELL       NOT AVBL
MOUNTAIN HOME  CLEAR     57  33  40 E3        30.03R
$$

IDZ016-017-251400-
SOUTHCENTRAL IDAHO


CITY           SKY/WX    TMP DP  RH WIND       PRES   REMARKS
BURLEY         CLEAR     51  42  71 SE3       30.09R
JEROME         CLEAR     56  38  50 E5        30.09R
TWIN FALLS     CLEAR     61  29  29 S12       30.09R
$$

IDZ019>023-251400-
SOUTHEAST IDAHO


CITY           SKY/WX    TMP DP  RH WIND       PRES   REMARKS
IDAHO FALLS    CLEAR     44  40  85 N5        30.16R
POCATELLO      CLOUDY    48  34  58 NE3       30.14R
REXBURG        CLEAR     47  41  80 NE3       30.17R
$$

IDZ006-010-011-018-031-032-251400-
CENTRAL IDAHO MOUNTAINS


CITY           SKY/WX    TMP DP  RH WIND       PRES   REMARKS
MCCALL         CLEAR     49  42  77 NE5       30.16R
HAILEY         CLEAR     52  36  54 W10       30.20S
STANLEY        NOT AVBL
SALMON         CLEAR     50  41  71 CALM      30.13R
CHALLIS        CLEAR     57  35  43 CALM      30.17R
$$

IDZ002-004-006-007-026-251400-
NORTHERN IDAHO


CITY           SKY/WX    TMP DP  RH WIND       PRES   REMARKS
LEWISTON       CLEAR     64  48  56 CALM      30.01R
LOWELL           N/A     54  50  86 NW3       30.09R
COEUR D`ALENE  CLEAR     57  52  82 NE3       30.04R
MULLAN PASS    CLEAR     60  42  51 CALM      30.22R
$$




USA.gov is the U.S. government's official web portal to all federal, state and local government web resources and services.